Time,TemperatureF,DewpointF,PressureIn,WindDirection,WindDirectionDegrees,WindSpeedMPH,WindSpeedGustMPH,Humidity,HourlyPrecipIn,Conditions,Clouds,dailyrainin,SoftwareType,DateUTC
2013-06-30 00:04:00,65.9,57.7,29.88,SE,136,1.0,6.0,75,0.00,,,0.06,Wunderground v.1.15,2013-06-30 05:04:00,
2013-06-30 00:10:00,65.9,57.7,29.87,SSE,150,1.0,6.0,75,0.00,,,0.06,Wunderground v.1.15,2013-06-30 05:10:00,
2013-06-30 00:16:00,65.8,57.7,29.88,SE,139,1.0,6.0,75,0.00,,,0.06,Wunderground v.1.15,2013-06-30 05:16:00,
2013-06-30 00:22:00,65.7,57.6,29.88,SSE,148,1.0,6.0,75,0.00,,,0.06,Wunderground v.1.15,2013-06-30 05:22:00,
2013-06-30 00:28:00,65.4,57.6,29.88,SE,146,1.0,6.0,76,0.00,,,0.06,Wunderground v.1.15,2013-06-30 05:28:00,
2013-06-30 00:34:00,65.1,57.7,29.88,SE,127,0.0,6.0,77,0.00,,,0.06,Wunderground v.1.15,2013-06-30 05:34:00,
2013-06-30 00:40:00,64.8,57.4,29.88,SE,131,0.0,6.0,77,0.00,,,0.06,Wunderground v.1.15,2013-06-30 05:40:00,
2013-06-30 00:45:00,64.6,57.6,29.88,SE,131,0.0,6.0,78,0.00,,,0.06,Wunderground v.1.15,2013-06-30 05:45:00,
2013-06-30 00:51:00,64.2,57.2,29.88,ESE,105,0.0,6.0,78,0.00,,,0.06,Wunderground v.1.15,2013-06-30 05:51:00,
2013-06-30 00:57:00,63.9,57.3,29.88,SE,146,0.0,6.0,79,0.00,,,0.06,Wunderground v.1.15,2013-06-30 05:57:00,
2013-06-30 01:02:00,63.6,57.3,29.88,ESE,118,0.0,6.0,80,0.00,,,0.06,Wunderground v.1.15,2013-06-30 06:02:00,
2013-06-30 01:08:00,63.4,57.5,29.88,ESE,120,0.0,6.0,81,0.00,,,0.06,Wunderground v.1.15,2013-06-30 06:08:00,
2013-06-30 01:13:00,63.2,57.3,29.88,ESE,111,0.0,6.0,81,0.00,,,0.06,Wunderground v.1.15,2013-06-30 06:13:00,
2013-06-30 01:19:00,63.0,57.1,29.89,SE,132,0.0,6.0,81,0.00,,,0.06,Wunderground v.1.15,2013-06-30 06:19:00,
2013-06-30 01:25:00,62.9,57.3,29.89,SE,143,0.0,6.0,82,0.00,,,0.00,Wunderground v.1.15,2013-06-30 06:25:00,
2013-06-30 01:31:00,62.9,57.0,29.88,SSE,152,1.0,6.0,81,0.00,,,0.00,Wunderground v.1.15,2013-06-30 06:31:00,
2013-06-30 01:37:00,62.8,57.2,29.88,SE,131,0.0,6.0,82,0.00,,,0.00,Wunderground v.1.15,2013-06-30 06:37:00,
2013-06-30 01:42:00,62.6,57.0,29.88,SSE,152,0.0,6.0,82,0.00,,,0.00,Wunderground v.1.15,2013-06-30 06:42:00,
2013-06-30 01:48:00,62.6,57.0,29.88,SE,136,1.0,6.0,82,0.00,,,0.00,Wunderground v.1.15,2013-06-30 06:48:00,
2013-06-30 01:54:00,62.5,56.9,29.88,SE,136,1.0,6.0,82,0.00,,,0.00,Wunderground v.1.15,2013-06-30 06:54:00,
2013-06-30 01:59:00,62.4,56.8,29.88,SE,146,1.0,6.0,82,0.00,,,0.00,Wunderground v.1.15,2013-06-30 06:59:00,
2013-06-30 02:05:00,62.2,56.6,29.88,SE,136,0.0,6.0,82,0.00,,,0.00,Wunderground v.1.15,2013-06-30 07:05:00,
2013-06-30 02:11:00,62.2,56.6,29.88,SE,141,1.0,6.0,82,0.00,,,0.00,Wunderground v.1.15,2013-06-30 07:11:00,
2013-06-30 02:17:00,62.0,56.4,29.88,SE,142,1.0,6.0,82,0.00,,,0.00,Wunderground v.1.15,2013-06-30 07:17:00,
2013-06-30 02:22:00,61.8,56.6,29.89,SE,136,1.0,6.0,83,0.00,,,0.00,Wunderground v.1.15,2013-06-30 07:22:00,
2013-06-30 02:28:00,61.6,56.4,29.89,SE,140,0.0,6.0,83,0.00,,,0.00,Wunderground v.1.15,2013-06-30 07:28:00,
2013-06-30 02:34:00,61.5,56.3,29.89,ESE,109,0.0,6.0,83,0.00,,,0.00,Wunderground v.1.15,2013-06-30 07:34:00,
2013-06-30 02:39:00,61.4,56.5,29.89,ESE,105,0.0,6.0,84,0.00,,,0.00,Wunderground v.1.15,2013-06-30 07:39:00,
2013-06-30 02:45:00,61.3,56.4,29.90,ESE,103,0.0,6.0,84,0.00,,,0.00,Wunderground v.1.15,2013-06-30 07:45:00,
2013-06-30 02:51:00,61.1,56.2,29.89,SSE,150,0.0,6.0,84,0.00,,,0.00,Wunderground v.1.15,2013-06-30 07:51:00,
2013-06-30 02:57:00,61.1,56.2,29.89,SE,135,0.0,6.0,84,0.00,,,0.00,Wunderground v.1.15,2013-06-30 07:57:00,
2013-06-30 03:02:00,61.0,56.1,29.89,SE,128,1.0,6.0,84,0.00,,,0.00,Wunderground v.1.15,2013-06-30 08:02:00,
2013-06-30 03:08:00,60.8,56.3,29.89,SE,129,0.0,6.0,85,0.00,,,0.00,Wunderground v.1.15,2013-06-30 08:08:00,
2013-06-30 03:14:00,60.7,56.2,29.89,SSE,160,0.0,6.0,85,0.00,,,0.00,Wunderground v.1.15,2013-06-30 08:14:00,
2013-06-30 03:20:00,60.5,56.0,29.89,SE,139,0.0,6.0,85,0.00,,,0.00,Wunderground v.1.15,2013-06-30 08:20:00,
2013-06-30 03:25:00,60.4,56.2,29.89,SE,141,0.0,6.0,86,0.00,,,0.00,Wunderground v.1.15,2013-06-30 08:25:00,
2013-06-30 03:31:00,60.4,56.2,29.89,SE,145,1.0,6.0,86,0.00,,,0.00,Wunderground v.1.15,2013-06-30 08:31:00,
2013-06-30 03:37:00,60.4,55.9,29.89,SE,131,1.0,6.0,85,0.00,,,0.00,Wunderground v.1.15,2013-06-30 08:37:00,
2013-06-30 03:43:00,60.4,55.9,29.89,South,172,1.0,6.0,85,0.00,,,0.00,Wunderground v.1.15,2013-06-30 08:43:00,
2013-06-30 03:49:00,60.2,56.0,29.90,SE,131,1.0,6.0,86,0.00,,,0.00,Wunderground v.1.15,2013-06-30 08:49:00,
2013-06-30 03:55:00,60.2,55.7,29.90,SE,138,1.0,6.0,85,0.00,,,0.00,Wunderground v.1.15,2013-06-30 08:55:00,
2013-06-30 04:01:00,60.2,55.7,29.90,SSE,150,1.0,6.0,85,0.00,,,0.00,Wunderground v.1.15,2013-06-30 09:01:00,
2013-06-30 04:06:00,60.1,55.6,29.90,SE,124,1.0,6.0,85,0.00,,,0.00,Wunderground v.1.15,2013-06-30 09:06:00,
2013-06-30 04:12:00,60.0,55.5,29.90,SE,134,1.0,6.0,85,0.00,,,0.00,Wunderground v.1.15,2013-06-30 09:12:00,
2013-06-30 04:18:00,59.9,55.7,29.90,SE,146,1.0,6.0,86,0.00,,,0.00,Wunderground v.1.15,2013-06-30 09:18:00,
2013-06-30 04:24:00,59.8,55.6,29.90,SSE,155,1.0,6.0,86,0.00,,,0.00,Wunderground v.1.15,2013-06-30 09:24:00,
2013-06-30 04:29:00,59.7,55.5,29.90,SE,146,1.0,6.0,86,0.00,,,0.00,Wunderground v.1.15,2013-06-30 09:29:00,
2013-06-30 04:35:00,59.6,55.4,29.91,SSE,150,1.0,6.0,86,0.00,,,0.00,Wunderground v.1.15,2013-06-30 09:35:00,
2013-06-30 04:41:00,59.6,55.4,29.91,SSE,149,1.0,6.0,86,0.00,,,0.00,Wunderground v.1.15,2013-06-30 09:41:00,
2013-06-30 04:47:00,59.6,55.7,29.91,SE,134,2.0,6.0,87,0.00,,,0.00,Wunderground v.1.15,2013-06-30 09:47:00,
2013-06-30 04:53:00,59.6,55.7,29.92,SE,135,2.0,6.0,87,0.00,,,0.00,Wunderground v.1.15,2013-06-30 09:53:00,
2013-06-30 04:59:00,59.5,55.6,29.92,SE,139,1.0,6.0,87,0.00,,,0.00,Wunderground v.1.15,2013-06-30 09:59:00,
2013-06-30 05:05:00,59.4,55.5,29.92,SE,134,1.0,6.0,87,0.00,,,0.00,Wunderground v.1.15,2013-06-30 10:05:00,
2013-06-30 05:10:00,59.5,55.6,29.92,SE,136,1.0,1.0,87,0.00,,,0.00,Wunderground v.1.15,2013-06-30 10:10:00,
2013-06-30 05:16:00,59.3,55.4,29.92,SSE,148,1.0,6.0,87,0.00,,,0.00,Wunderground v.1.15,2013-06-30 10:16:00,
2013-06-30 05:22:00,59.2,55.6,29.92,SSE,148,1.0,6.0,88,0.00,,,0.00,Wunderground v.1.15,2013-06-30 10:22:00,
2013-06-30 05:28:00,59.3,55.7,29.93,SSE,151,1.0,6.0,88,0.00,,,0.00,Wunderground v.1.15,2013-06-30 10:28:00,
2013-06-30 05:33:00,59.2,55.6,29.93,SE,136,1.0,6.0,88,0.00,,,0.00,Wunderground v.1.15,2013-06-30 10:33:00,
2013-06-30 05:39:00,59.2,55.6,29.93,SE,146,1.0,6.0,88,0.00,,,0.00,Wunderground v.1.15,2013-06-30 10:39:00,
2013-06-30 05:45:00,59.3,55.7,29.93,SE,136,2.0,6.0,88,0.00,,,0.00,Wunderground v.1.15,2013-06-30 10:45:00,
2013-06-30 05:51:00,59.2,55.3,29.94,SE,139,2.0,6.0,87,0.00,,,0.00,Wunderground v.1.15,2013-06-30 10:51:00,
2013-06-30 05:57:00,59.1,55.5,29.94,SE,124,1.0,6.0,88,0.00,,,0.00,Wunderground v.1.15,2013-06-30 10:57:00,
2013-06-30 06:02:00,59.0,55.4,29.94,SSE,164,1.0,6.0,88,0.00,,,0.00,Wunderground v.1.15,2013-06-30 11:02:00,
2013-06-30 06:08:00,59.0,55.4,29.94,SE,139,2.0,6.0,88,0.00,,,0.00,Wunderground v.1.15,2013-06-30 11:08:00,
2013-06-30 06:13:00,59.1,55.5,29.95,SE,131,2.0,6.0,88,0.00,,,0.00,Wunderground v.1.15,2013-06-30 11:13:00,
2013-06-30 06:19:00,59.1,55.5,29.95,SE,128,2.0,6.0,88,0.00,,,0.00,Wunderground v.1.15,2013-06-30 11:19:00,
2013-06-30 06:25:00,59.0,55.4,29.95,South,172,1.0,6.0,88,0.00,,,0.00,Wunderground v.1.15,2013-06-30 11:25:00,
2013-06-30 06:31:00,59.0,55.4,29.95,SSE,158,1.0,6.0,88,0.00,,,0.00,Wunderground v.1.15,2013-06-30 11:31:00,
2013-06-30 06:36:00,59.1,55.5,29.95,SE,134,1.0,6.0,88,0.00,,,0.00,Wunderground v.1.15,2013-06-30 11:36:00,
2013-06-30 06:42:00,59.2,55.6,29.95,SE,142,1.0,6.0,88,0.00,,,0.00,Wunderground v.1.15,2013-06-30 11:42:00,
2013-06-30 06:48:00,59.3,55.7,29.95,SE,136,2.0,6.0,88,0.00,,,0.00,Wunderground v.1.15,2013-06-30 11:48:00,
2013-06-30 06:54:00,59.3,55.7,29.95,SE,138,2.0,6.0,88,0.00,,,0.00,Wunderground v.1.15,2013-06-30 11:54:00,
2013-06-30 06:59:00,59.3,55.7,29.95,SSE,153,2.0,6.0,88,0.00,,,0.00,Wunderground v.1.15,2013-06-30 11:59:00,
2013-06-30 07:04:00,59.3,55.7,29.95,SSE,148,2.0,6.0,88,0.00,,,0.00,Wunderground v.1.15,2013-06-30 12:04:00,
2013-06-30 07:10:00,59.4,55.5,29.96,SSE,156,1.0,6.0,87,0.00,,,0.00,Wunderground v.1.15,2013-06-30 12:10:00,
2013-06-30 07:16:00,59.5,55.6,29.96,SSW,193,2.0,6.0,87,0.00,,,0.00,Wunderground v.1.15,2013-06-30 12:16:00,
2013-06-30 07:21:00,59.7,55.8,29.96,ESE,120,2.0,6.0,87,0.00,,,0.00,Wunderground v.1.15,2013-06-30 12:21:00,
2013-06-30 07:27:00,59.9,56.0,29.96,SSE,155,2.0,6.0,87,0.00,,,0.00,Wunderground v.1.15,2013-06-30 12:27:00,
2013-06-30 07:33:00,60.2,56.0,29.96,SE,132,2.0,6.0,86,0.00,,,0.00,Wunderground v.1.15,2013-06-30 12:33:00,
2013-06-30 07:39:00,60.6,56.1,29.96,South,181,2.0,6.0,85,0.00,,,0.00,Wunderground v.1.15,2013-06-30 12:39:00,
2013-06-30 07:45:00,61.1,56.6,29.96,SE,143,3.0,6.0,85,0.00,,,0.00,Wunderground v.1.15,2013-06-30 12:45:00,
2013-06-30 07:50:00,61.6,56.7,29.96,SE,139,2.0,6.0,84,0.00,,,0.00,Wunderground v.1.15,2013-06-30 12:50:00,
2013-06-30 07:56:00,62.2,56.6,29.96,SSE,152,3.0,6.0,82,0.00,,,0.00,Wunderground v.1.15,2013-06-30 12:56:00,
2013-06-30 08:01:00,62.5,56.6,29.96,SSE,162,3.0,6.0,81,0.00,,,0.00,Wunderground v.1.15,2013-06-30 13:01:00,
2013-06-30 08:07:00,63.0,56.7,29.96,SE,135,3.0,6.0,80,0.00,,,0.00,Wunderground v.1.15,2013-06-30 13:07:00,
2013-06-30 08:12:00,63.3,56.7,29.96,SSE,151,3.0,6.0,79,0.00,,,0.00,Wunderground v.1.15,2013-06-30 13:12:00,
2013-06-30 08:18:00,63.7,57.1,29.96,SE,131,3.0,6.0,79,0.00,,,0.00,Wunderground v.1.15,2013-06-30 13:18:00,
2013-06-30 08:24:00,64.3,57.3,29.97,SE,135,2.0,6.0,78,0.00,,,0.00,Wunderground v.1.15,2013-06-30 13:24:00,
2013-06-30 08:29:00,64.6,57.2,29.97,ESE,114,2.0,6.0,77,0.00,,,0.00,Wunderground v.1.15,2013-06-30 13:29:00,
2013-06-30 08:35:00,64.9,57.2,29.97,SE,145,3.0,6.0,76,0.00,,,0.00,Wunderground v.1.15,2013-06-30 13:35:00,
2013-06-30 08:41:00,64.9,57.2,29.97,SSE,150,2.0,6.0,76,0.00,,,0.00,Wunderground v.1.15,2013-06-30 13:41:00,
2013-06-30 08:47:00,64.9,57.2,29.97,SSE,148,3.0,6.0,76,0.00,,,0.00,Wunderground v.1.15,2013-06-30 13:47:00,
2013-06-30 08:53:00,65.7,57.9,29.97,SSE,159,2.0,6.0,76,0.00,,,0.00,Wunderground v.1.15,2013-06-30 13:53:00,
2013-06-30 08:58:00,66.6,57.7,29.97,SE,138,1.0,6.0,73,0.00,,,0.00,Wunderground v.1.15,2013-06-30 13:58:00,
2013-06-30 09:04:00,67.2,58.6,29.97,SE,143,1.0,6.0,74,0.00,,,0.00,Wunderground v.1.15,2013-06-30 14:04:00,
2013-06-30 09:10:00,67.9,58.9,29.97,ESE,105,1.0,1.0,73,0.00,,,0.00,Wunderground v.1.15,2013-06-30 14:10:00,
2013-06-30 09:16:00,68.9,59.5,29.97,SSE,148,2.0,6.0,72,0.00,,,0.00,Wunderground v.1.15,2013-06-30 14:16:00,
2013-06-30 09:22:00,68.5,59.1,29.97,SE,139,2.0,6.0,72,0.00,,,0.00,Wunderground v.1.15,2013-06-30 14:22:00,
2013-06-30 09:28:00,68.1,57.9,29.97,SE,134,3.0,6.0,70,0.00,,,0.00,Wunderground v.1.15,2013-06-30 14:28:00,
2013-06-30 09:31:00,68.0,58.2,29.97,ENE,75,2.0,6.0,71,0.00,,,0.00,Wunderground v.1.15,2013-06-30 14:31:00,
2013-06-30 09:37:00,67.9,57.8,29.97,South,169,2.0,6.0,70,0.00,,,0.00,Wunderground v.1.15,2013-06-30 14:37:00,
2013-06-30 09:42:00,68.4,58.2,29.97,ESE,109,2.0,6.0,70,0.00,,,0.00,Wunderground v.1.15,2013-06-30 14:42:00,
2013-06-30 09:48:00,68.0,57.8,29.98,SE,145,2.0,6.0,70,0.00,,,0.00,Wunderground v.1.15,2013-06-30 14:48:00,
2013-06-30 09:54:00,68.5,58.3,29.98,SE,139,2.0,6.0,70,0.00,,,0.00,Wunderground v.1.15,2013-06-30 14:54:00,
2013-06-30 10:00:00,69.5,59.7,29.98,South,169,2.0,6.0,71,0.00,,,0.00,Wunderground v.1.15,2013-06-30 15:00:00,
2013-06-30 10:06:00,69.9,58.4,29.98,SE,145,2.0,6.0,67,0.00,,,0.00,Wunderground v.1.15,2013-06-30 15:06:00,
2013-06-30 10:11:00,70.6,59.1,29.98,ESE,121,2.0,6.0,67,0.00,,,0.00,Wunderground v.1.15,2013-06-30 15:11:00,
2013-06-30 10:17:00,71.2,59.3,29.98,SE,136,2.0,6.0,66,0.00,,,0.00,Wunderground v.1.15,2013-06-30 15:17:00,
2013-06-30 10:23:00,71.0,58.6,29.98,SSE,148,2.0,6.0,65,0.00,,,0.00,Wunderground v.1.15,2013-06-30 15:23:00,
2013-06-30 10:29:00,71.1,58.7,29.98,SE,145,3.0,7.0,65,0.00,,,0.00,Wunderground v.1.15,2013-06-30 15:29:00,
2013-06-30 10:35:00,71.2,58.4,29.99,SE,127,2.0,6.0,64,0.00,,,0.00,Wunderground v.1.15,2013-06-30 15:35:00,
2013-06-30 10:41:00,71.0,57.3,29.99,SE,141,2.0,6.0,62,0.00,,,0.00,Wunderground v.1.15,2013-06-30 15:41:00,
2013-06-30 10:47:00,70.5,57.7,29.99,ESE,113,2.0,6.0,64,0.00,,,0.00,Wunderground v.1.15,2013-06-30 15:47:00,
2013-06-30 10:52:00,70.3,58.4,29.99,East,101,2.0,6.0,66,0.00,,,0.00,Wunderground v.1.15,2013-06-30 15:52:00,
2013-06-30 10:58:00,70.1,57.8,29.99,ESE,108,2.0,6.0,65,0.00,,,0.00,Wunderground v.1.15,2013-06-30 15:58:00,
2013-06-30 11:04:00,69.9,57.2,29.99,SE,129,2.0,6.0,64,0.00,,,0.00,Wunderground v.1.15,2013-06-30 16:04:00,
2013-06-30 11:10:00,70.0,58.5,29.99,SE,136,2.0,2.0,67,0.00,,,0.00,Wunderground v.1.15,2013-06-30 16:10:00,
2013-06-30 11:15:00,70.9,59.0,29.99,SSE,150,1.0,6.0,66,0.00,,,0.00,Wunderground v.1.15,2013-06-30 16:15:00,
2013-06-30 11:21:00,72.1,58.4,29.99,SE,132,2.0,6.0,62,0.00,,,0.00,Wunderground v.1.15,2013-06-30 16:21:00,
2013-06-30 11:27:00,72.7,58.0,29.99,ESE,121,3.0,6.0,60,0.00,,,0.00,Wunderground v.1.15,2013-06-30 16:27:00,
2013-06-30 11:33:00,73.2,57.5,29.99,ESE,122,3.0,6.0,58,0.00,,,0.00,Wunderground v.1.15,2013-06-30 16:33:00,
2013-06-30 11:39:00,73.7,58.0,29.99,South,181,3.0,6.0,58,0.00,,,0.00,Wunderground v.1.15,2013-06-30 16:39:00,
2013-06-30 11:45:00,73.8,57.1,29.99,SSE,160,2.0,6.0,56,0.00,,,0.00,Wunderground v.1.15,2013-06-30 16:45:00,
2013-06-30 11:51:00,73.4,58.2,29.99,SE,142,3.0,6.0,59,0.00,,,0.00,Wunderground v.1.15,2013-06-30 16:51:00,
2013-06-30 11:56:00,73.8,58.1,29.99,SSE,155,4.0,8.0,58,0.00,,,0.00,Wunderground v.1.15,2013-06-30 16:56:00,
2013-06-30 12:02:00,74.1,59.3,29.99,South,176,4.0,6.0,60,0.00,,,0.00,Wunderground v.1.15,2013-06-30 17:02:00,
2013-06-30 12:08:00,74.4,56.2,29.99,South,183,3.0,6.0,53,0.00,,,0.00,Wunderground v.1.15,2013-06-30 17:08:00,
2013-06-30 12:14:00,74.6,57.4,29.99,SSE,156,4.0,6.0,55,0.00,,,0.00,Wunderground v.1.15,2013-06-30 17:14:00,
2013-06-30 12:19:00,75.0,55.6,29.99,SSW,194,3.0,7.0,51,0.00,,,0.00,Wunderground v.1.15,2013-06-30 17:19:00,
2013-06-30 12:25:00,75.3,57.0,29.99,East,97,4.0,7.0,53,0.00,,,0.00,Wunderground v.1.15,2013-06-30 17:25:00,
2013-06-30 12:31:00,75.5,57.7,29.99,SE,136,4.0,6.0,54,0.00,,,0.00,Wunderground v.1.15,2013-06-30 17:31:00,
2013-06-30 12:37:00,76.4,59.0,29.98,SSE,158,3.0,6.0,55,0.00,,,0.00,Wunderground v.1.15,2013-06-30 17:37:00,
2013-06-30 12:43:00,77.0,56.9,29.98,SSE,147,2.0,6.0,50,0.00,,,0.00,Wunderground v.1.15,2013-06-30 17:43:00,
2013-06-30 12:48:00,77.0,56.4,29.98,SW,214,3.0,6.0,49,0.00,,,0.00,Wunderground v.1.15,2013-06-30 17:48:00,
2013-06-30 12:54:00,76.7,56.7,29.98,SE,132,3.0,6.0,50,0.00,,,0.00,Wunderground v.1.15,2013-06-30 17:54:00,
2013-06-30 13:00:00,77.3,55.5,29.98,SSE,153,3.0,3.0,47,0.00,,,0.00,Wunderground v.1.15,2013-06-30 18:00:00,
2013-06-30 13:05:00,76.8,56.8,29.98,SSE,156,3.0,6.0,50,0.00,,,0.00,Wunderground v.1.15,2013-06-30 18:05:00,
2013-06-30 13:11:00,77.0,56.9,29.98,South,186,4.0,6.0,50,0.00,,,0.00,Wunderground v.1.15,2013-06-30 18:11:00,
2013-06-30 13:17:00,77.3,55.5,29.98,SSE,161,2.0,9.0,47,0.00,,,0.00,Wunderground v.1.15,2013-06-30 18:17:00,
2013-06-30 13:23:00,77.1,56.5,29.98,SE,137,3.0,6.0,49,0.00,,,0.00,Wunderground v.1.15,2013-06-30 18:23:00,
2013-06-30 13:28:00,77.1,55.9,29.98,ESE,119,2.0,6.0,48,0.00,,,0.00,Wunderground v.1.15,2013-06-30 18:28:00,
2013-06-30 13:34:00,77.2,57.7,29.98,SE,146,2.0,6.0,51,0.00,,,0.00,Wunderground v.1.15,2013-06-30 18:34:00,
2013-06-30 13:35:00,77.3,56.6,29.98,SSE,163,2.0,6.0,49,0.00,,,0.00,Wunderground v.1.15,2013-06-30 18:35:00,
2013-06-30 13:41:00,77.9,57.2,29.98,NNE,22,2.0,5.0,49,0.00,,,0.00,Wunderground v.1.15,2013-06-30 18:41:00,
2013-06-30 13:47:00,78.0,56.1,29.98,SSE,163,2.0,6.0,47,0.00,,,0.00,Wunderground v.1.15,2013-06-30 18:47:00,
2013-06-30 13:52:00,78.3,56.4,29.98,SE,130,1.0,6.0,47,0.00,,,0.00,Wunderground v.1.15,2013-06-30 18:52:00,
2013-06-30 13:58:00,78.1,55.0,29.98,SE,143,3.0,6.0,45,0.00,,,0.00,Wunderground v.1.15,2013-06-30 18:58:00,
2013-06-30 14:04:00,78.1,55.6,29.98,SE,135,4.0,7.0,46,0.00,,,0.00,Wunderground v.1.15,2013-06-30 19:04:00,
2013-06-30 14:10:00,78.3,54.6,29.98,SSE,164,3.0,3.0,44,0.00,,,0.00,Wunderground v.1.15,2013-06-30 19:10:00,
2013-06-30 14:15:00,78.5,55.4,29.98,SSE,150,2.0,6.0,45,0.00,,,0.00,Wunderground v.1.15,2013-06-30 19:15:00,
2013-06-30 14:21:00,78.4,55.3,29.98,SE,137,2.0,6.0,45,0.00,,,0.00,Wunderground v.1.15,2013-06-30 19:21:00,
2013-06-30 14:27:00,78.4,55.3,29.98,SE,139,3.0,6.0,45,0.00,,,0.00,Wunderground v.1.15,2013-06-30 19:27:00,
2013-06-30 14:32:00,78.4,54.7,29.98,SW,215,3.0,6.0,44,0.00,,,0.00,Wunderground v.1.15,2013-06-30 19:32:00,
2013-06-30 14:38:00,78.4,55.9,29.98,SSE,152,2.0,6.0,46,0.00,,,0.00,Wunderground v.1.15,2013-06-30 19:38:00,
2013-06-30 14:44:00,77.3,55.5,29.98,SE,143,3.0,6.0,47,0.00,,,0.00,Wunderground v.1.15,2013-06-30 19:44:00,
2013-06-30 14:50:00,76.8,55.0,29.98,SSE,155,3.0,3.0,47,0.00,,,0.00,Wunderground v.1.15,2013-06-30 19:50:00,
2013-06-30 14:55:00,77.0,54.6,29.98,SE,133,1.0,6.0,46,0.00,,,0.00,Wunderground v.1.15,2013-06-30 19:55:00,
2013-06-30 15:01:00,76.9,55.7,29.98,SSE,158,2.0,6.0,48,0.00,,,0.00,Wunderground v.1.15,2013-06-30 20:01:00,
2013-06-30 15:07:00,76.7,53.1,29.98,SSE,152,3.0,6.0,44,0.00,,,0.00,Wunderground v.1.15,2013-06-30 20:07:00,
2013-06-30 15:13:00,77.0,54.6,29.98,ESE,120,3.0,6.0,46,0.00,,,0.00,Wunderground v.1.15,2013-06-30 20:13:00,
2013-06-30 15:18:00,77.3,52.4,29.98,SSE,149,2.0,6.0,42,0.00,,,0.00,Wunderground v.1.15,2013-06-30 20:18:00,
2013-06-30 15:24:00,77.7,54.0,29.99,SSE,147,2.0,6.0,44,0.00,,,0.00,Wunderground v.1.15,2013-06-30 20:24:00,
2013-06-30 15:30:00,77.9,54.2,29.99,SSE,162,3.0,6.0,44,0.00,,,0.00,Wunderground v.1.15,2013-06-30 20:30:00,
2013-06-30 15:36:00,77.9,53.6,29.98,SE,132,4.0,6.0,43,0.00,,,0.00,Wunderground v.1.15,2013-06-30 20:36:00,
2013-06-30 15:41:00,77.8,53.5,29.99,SSE,157,3.0,6.0,43,0.00,,,0.00,Wunderground v.1.15,2013-06-30 20:41:00,
2013-06-30 15:47:00,77.7,54.0,29.99,SSE,155,2.0,6.0,44,0.00,,,0.00,Wunderground v.1.15,2013-06-30 20:47:00,
2013-06-30 15:53:00,77.6,53.3,29.99,South,172,2.0,6.0,43,0.00,,,0.00,Wunderground v.1.15,2013-06-30 20:53:00,
2013-06-30 15:59:00,77.2,54.8,29.99,South,179,2.0,6.0,46,0.00,,,0.00,Wunderground v.1.15,2013-06-30 20:59:00,
2013-06-30 16:04:00,77.0,54.0,29.99,ESE,114,2.0,6.0,45,0.00,,,0.00,Wunderground v.1.15,2013-06-30 21:04:00,
2013-06-30 16:10:00,77.0,54.6,29.98,SSE,147,2.0,2.0,46,0.00,,,0.00,Wunderground v.1.15,2013-06-30 21:10:00,
2013-06-30 16:16:00,77.5,55.1,29.98,South,181,2.0,6.0,46,0.00,,,0.00,Wunderground v.1.15,2013-06-30 21:16:00,
2013-06-30 16:22:00,77.4,53.8,29.98,SSE,164,1.0,6.0,44,0.00,,,0.00,Wunderground v.1.15,2013-06-30 21:22:00,
2013-06-30 16:27:00,76.7,53.1,29.98,SSE,154,2.0,6.0,44,0.00,,,0.00,Wunderground v.1.15,2013-06-30 21:27:00,
2013-06-30 16:33:00,76.1,52.0,29.98,SSE,160,4.0,6.0,43,0.00,,,0.00,Wunderground v.1.15,2013-06-30 21:33:00,
2013-06-30 16:39:00,75.9,53.0,29.98,SE,141,3.0,6.0,45,0.00,,,0.00,Wunderground v.1.15,2013-06-30 21:39:00,
2013-06-30 16:44:00,75.9,53.6,29.99,SSE,156,2.0,6.0,46,0.00,,,0.00,Wunderground v.1.15,2013-06-30 21:44:00,
2013-06-30 16:50:00,75.9,54.8,29.98,SSE,148,2.0,6.0,48,0.00,,,0.00,Wunderground v.1.15,2013-06-30 21:50:00,
2013-06-30 16:56:00,75.8,52.9,29.99,SSE,148,2.0,6.0,45,0.00,,,0.00,Wunderground v.1.15,2013-06-30 21:56:00,
2013-06-30 17:02:00,75.6,53.4,29.99,SSE,167,2.0,6.0,46,0.00,,,0.00,Wunderground v.1.15,2013-06-30 22:02:00,
2013-06-30 17:08:00,75.4,52.0,29.99,SSE,148,3.0,7.0,44,0.00,,,0.00,Wunderground v.1.15,2013-06-30 22:08:00,
2013-06-30 17:13:00,75.3,51.3,29.99,SE,139,3.0,6.0,43,0.00,,,0.00,Wunderground v.1.15,2013-06-30 22:13:00,
2013-06-30 17:19:00,75.3,50.6,29.99,SSE,148,3.0,6.0,42,0.00,,,0.00,Wunderground v.1.15,2013-06-30 22:19:00,
2013-06-30 17:24:00,75.3,53.1,29.99,SSE,167,3.0,6.0,46,0.00,,,0.00,Wunderground v.1.15,2013-06-30 22:24:00,
2013-06-30 17:30:00,75.2,53.0,29.98,SSW,212,3.0,3.0,46,0.00,,,0.00,Wunderground v.1.15,2013-06-30 22:30:00,
2013-06-30 17:35:00,75.3,51.9,29.99,SSE,153,3.0,6.0,44,0.00,,,0.00,Wunderground v.1.15,2013-06-30 22:35:00,
2013-06-30 17:41:00,75.5,52.7,29.99,ESE,117,2.0,5.0,45,0.00,,,0.00,Wunderground v.1.15,2013-06-30 22:41:00,
2013-06-30 17:47:00,75.7,51.6,29.99,SSW,198,1.0,6.0,43,0.00,,,0.00,Wunderground v.1.15,2013-06-30 22:47:00,
2013-06-30 17:53:00,75.7,52.2,29.99,SSE,155,2.0,7.0,44,0.00,,,0.00,Wunderground v.1.15,2013-06-30 22:53:00,
2013-06-30 17:59:00,75.7,52.2,29.99,SSE,149,3.0,7.0,44,0.00,,,0.00,Wunderground v.1.15,2013-06-30 22:59:00,
2013-06-30 18:05:00,75.7,51.6,29.99,SE,144,2.0,6.0,43,0.00,,,0.00,Wunderground v.1.15,2013-06-30 23:05:00,
2013-06-30 18:11:00,75.7,52.2,29.99,SE,142,2.0,6.0,44,0.00,,,0.00,Wunderground v.1.15,2013-06-30 23:11:00,
2013-06-30 18:16:00,75.5,52.1,29.99,SSW,193,2.0,7.0,44,0.00,,,0.00,Wunderground v.1.15,2013-06-30 23:16:00,
2013-06-30 18:22:00,75.3,51.3,29.99,SSE,148,2.0,6.0,43,0.00,,,0.00,Wunderground v.1.15,2013-06-30 23:22:00,
2013-06-30 18:28:00,75.3,52.5,29.99,SE,132,2.0,6.0,45,0.00,,,0.00,Wunderground v.1.15,2013-06-30 23:28:00,
2013-06-30 18:34:00,75.3,51.3,29.99,South,187,2.0,6.0,43,0.00,,,0.00,Wunderground v.1.15,2013-06-30 23:34:00,
2013-06-30 18:40:00,75.3,51.9,30.00,SE,135,2.0,2.0,44,0.00,,,0.00,Wunderground v.1.15,2013-06-30 23:40:00,
2013-06-30 18:46:00,75.3,50.0,29.99,SSE,148,2.0,6.0,41,0.00,,,0.00,Wunderground v.1.15,2013-06-30 23:46:00,
2013-06-30 18:52:00,75.2,51.2,30.00,SE,136,2.0,6.0,43,0.00,,,0.00,Wunderground v.1.15,2013-06-30 23:52:00,
2013-06-30 18:58:00,75.0,50.3,30.00,SE,135,2.0,6.0,42,0.00,,,0.00,Wunderground v.1.15,2013-06-30 23:58:00,
2013-06-30 19:03:00,74.8,50.8,30.00,SE,131,2.0,6.0,43,0.00,,,0.00,Wunderground v.1.15,2013-07-01 00:03:00,
2013-06-30 19:09:00,74.5,51.2,30.00,SE,146,2.0,6.0,44,0.00,,,0.00,Wunderground v.1.15,2013-07-01 00:09:00,
2013-06-30 19:15:00,74.2,50.9,30.00,SE,144,2.0,6.0,44,0.00,,,0.00,Wunderground v.1.15,2013-07-01 00:15:00,
2013-06-30 19:21:00,74.0,50.7,30.00,SE,132,2.0,6.0,44,0.00,,,0.00,Wunderground v.1.15,2013-07-01 00:21:00,
2013-06-30 19:26:00,73.8,51.1,30.00,SE,133,2.0,6.0,45,0.00,,,0.00,Wunderground v.1.15,2013-07-01 00:26:00,
2013-06-30 19:32:00,73.5,52.0,30.00,SSE,147,2.0,6.0,47,0.00,,,0.00,Wunderground v.1.15,2013-07-01 00:32:00,
2013-06-30 19:38:00,73.3,51.8,30.01,SE,146,1.0,6.0,47,0.00,,,0.00,Wunderground v.1.15,2013-07-01 00:38:00,
2013-06-30 19:44:00,73.1,52.2,30.01,SSE,153,2.0,6.0,48,0.00,,,0.00,Wunderground v.1.15,2013-07-01 00:44:00,
2013-06-30 19:49:00,72.9,52.6,30.01,SSE,148,2.0,6.0,49,0.00,,,0.00,Wunderground v.1.15,2013-07-01 00:49:00,
2013-06-30 19:55:00,72.6,52.3,30.01,SSE,149,2.0,6.0,49,0.00,,,0.00,Wunderground v.1.15,2013-07-01 00:55:00,
2013-06-30 20:01:00,72.4,52.7,30.01,South,169,1.0,6.0,50,0.00,,,0.00,Wunderground v.1.15,2013-07-01 01:01:00,
2013-06-30 20:07:00,72.1,53.0,30.01,SSE,156,1.0,6.0,51,0.00,,,0.00,Wunderground v.1.15,2013-07-01 01:07:00,
2013-06-30 20:12:00,71.8,52.2,30.01,SE,124,2.0,6.0,50,0.00,,,0.00,Wunderground v.1.15,2013-07-01 01:12:00,
2013-06-30 20:18:00,71.4,51.2,30.01,South,170,2.0,6.0,49,0.00,,,0.00,Wunderground v.1.15,2013-07-01 01:18:00,
2013-06-30 20:24:00,71.0,50.9,30.01,SSE,150,2.0,6.0,49,0.00,,,0.00,Wunderground v.1.15,2013-07-01 01:24:00,
2013-06-30 20:30:00,70.6,51.1,30.02,SSE,152,1.0,1.0,50,0.00,,,0.00,Wunderground v.1.15,2013-07-01 01:30:00,
2013-06-30 20:35:00,70.2,50.7,30.02,SSE,153,1.0,6.0,50,0.00,,,0.00,Wunderground v.1.15,2013-07-01 01:35:00,
2013-06-30 20:41:00,69.9,50.9,30.01,SSE,150,1.0,6.0,51,0.00,,,0.00,Wunderground v.1.15,2013-07-01 01:41:00,
2013-06-30 20:43:00,69.7,50.8,30.01,SE,137,1.0,6.0,51,0.00,,,0.00,Wunderground v.1.15,2013-07-01 01:43:00,
2013-06-30 20:49:00,69.4,50.5,30.01,SE,125,1.0,6.0,51,0.00,,,0.00,Wunderground v.1.15,2013-07-01 01:49:00,
2013-06-30 20:54:00,69.2,50.3,30.01,SE,143,2.0,6.0,51,0.00,,,0.00,Wunderground v.1.15,2013-07-01 01:54:00,
2013-06-30 21:00:00,69.0,50.6,30.01,SE,131,1.0,6.0,52,0.00,,,0.00,Wunderground v.1.15,2013-07-01 02:00:00,
2013-06-30 21:06:00,68.8,50.5,30.02,SE,144,1.0,6.0,52,0.00,,,0.00,Wunderground v.1.15,2013-07-01 02:06:00,
2013-06-30 21:12:00,68.5,50.2,30.02,SE,134,1.0,6.0,52,0.00,,,0.00,Wunderground v.1.15,2013-07-01 02:12:00,
2013-06-30 21:17:00,68.3,50.0,30.02,SSE,163,1.0,6.0,52,0.00,,,0.00,Wunderground v.1.15,2013-07-01 02:17:00,
2013-06-30 21:23:00,68.1,50.3,30.02,SE,139,1.0,6.0,53,0.00,,,0.00,Wunderground v.1.15,2013-07-01 02:23:00,
2013-06-30 21:29:00,67.7,49.9,30.02,SE,137,1.0,6.0,53,0.00,,,0.00,Wunderground v.1.15,2013-07-01 02:29:00,
2013-06-30 21:35:00,67.5,49.8,30.03,SE,146,1.0,6.0,53,0.00,,,0.00,Wunderground v.1.15,2013-07-01 02:35:00,
2013-06-30 21:40:00,67.5,50.3,30.03,SE,139,1.0,1.0,54,0.00,,,0.00,Wunderground v.1.15,2013-07-01 02:40:00,
2013-06-30 21:45:00,67.3,50.6,30.03,ESE,107,1.0,6.0,55,0.00,,,0.00,Wunderground v.1.15,2013-07-01 02:45:00,
2013-06-30 21:51:00,67.1,50.4,30.04,SE,136,1.0,6.0,55,0.00,,,0.00,Wunderground v.1.15,2013-07-01 02:51:00,
2013-06-30 21:57:00,66.9,50.7,30.04,SE,146,1.0,6.0,56,0.00,,,0.00,Wunderground v.1.15,2013-07-01 02:57:00,
2013-06-30 22:02:00,66.6,50.9,30.04,SE,140,1.0,6.0,57,0.00,,,0.00,Wunderground v.1.15,2013-07-01 03:02:00,
2013-06-30 22:07:00,66.4,50.7,30.04,SE,142,1.0,6.0,57,0.00,,,0.00,Wunderground v.1.15,2013-07-01 03:07:00,
2013-06-30 22:13:00,66.2,51.0,30.04,SE,145,1.0,6.0,58,0.00,,,0.00,Wunderground v.1.15,2013-07-01 03:13:00,
2013-06-30 22:19:00,66.1,51.4,30.04,SE,143,1.0,6.0,59,0.00,,,0.00,Wunderground v.1.15,2013-07-01 03:19:00,
2013-06-30 22:25:00,66.0,51.3,30.04,SE,139,1.0,6.0,59,0.00,,,0.00,Wunderground v.1.15,2013-07-01 03:25:00,
2013-06-30 22:30:00,65.9,51.6,30.04,SE,144,1.0,1.0,60,0.00,,,0.00,Wunderground v.1.15,2013-07-01 03:30:00,
2013-06-30 22:35:00,65.7,51.4,30.04,SE,145,1.0,6.0,60,0.00,,,0.00,Wunderground v.1.15,2013-07-01 03:35:00,
2013-06-30 22:41:00,65.7,51.9,30.05,SSE,149,1.0,6.0,61,0.00,,,0.00,Wunderground v.1.15,2013-07-01 03:41:00,
2013-06-30 22:47:00,65.6,51.8,30.05,SE,139,1.0,6.0,61,0.00,,,0.00,Wunderground v.1.15,2013-07-01 03:47:00,
2013-06-30 22:52:00,65.6,51.8,30.05,SE,137,1.0,6.0,61,0.00,,,0.00,Wunderground v.1.15,2013-07-01 03:52:00,
2013-06-30 22:58:00,65.5,51.7,30.05,SE,143,1.0,6.0,61,0.00,,,0.00,Wunderground v.1.15,2013-07-01 03:58:00,
2013-06-30 23:01:00,65.6,51.8,30.05,SE,146,1.0,6.0,61,0.00,,,0.00,Wunderground v.1.15,2013-07-01 04:01:00,
2013-06-30 23:02:00,65.5,51.7,30.05,SE,146,1.0,6.0,61,0.00,,,0.00,Wunderground v.1.15,2013-07-01 04:02:00,
2013-06-30 23:03:00,65.5,51.7,30.05,SE,145,1.0,6.0,61,0.00,,,0.00,Wunderground v.1.15,2013-07-01 04:03:00,
2013-06-30 23:05:00,65.5,52.1,30.05,SE,146,1.0,6.0,62,0.00,,,0.00,Wunderground v.1.15,2013-07-01 04:05:00,
2013-06-30 23:11:00,65.5,52.1,30.05,SE,140,1.0,6.0,62,0.00,,,0.00,Wunderground v.1.15,2013-07-01 04:11:00,
2013-06-30 23:16:00,65.4,52.0,30.05,SE,133,1.0,6.0,62,0.00,,,0.00,Wunderground v.1.15,2013-07-01 04:16:00,
2013-06-30 23:18:00,65.4,52.0,30.05,SE,145,1.0,6.0,62,0.00,,,0.00,Wunderground v.1.15,2013-07-01 04:18:00,
2013-06-30 23:24:00,65.4,52.5,30.05,SE,137,1.0,6.0,63,0.00,,,0.00,Wunderground v.1.15,2013-07-01 04:24:00,
2013-06-30 23:30:00,65.3,52.4,30.05,SE,131,1.0,1.0,63,0.00,,,0.00,Wunderground v.1.15,2013-07-01 04:30:00,
2013-06-30 23:35:00,65.2,52.3,30.05,SE,142,0.0,6.0,63,0.00,,,0.00,Wunderground v.1.15,2013-07-01 04:35:00,
2013-06-30 23:41:00,65.0,52.1,30.05,SSE,155,0.0,6.0,63,0.00,,,0.00,Wunderground v.1.15,2013-07-01 04:41:00,
2013-06-30 23:47:00,64.7,52.2,30.05,SE,146,0.0,6.0,64,0.00,,,0.00,Wunderground v.1.15,2013-07-01 04:47:00,
2013-06-30 23:53:00,64.5,52.5,30.05,SE,139,0.0,6.0,65,0.00,,,0.00,Wunderground v.1.15,2013-07-01 04:53:00,
2013-06-30 23:58:00,64.4,52.4,30.05,SSE,148,0.0,6.0,65,0.00,,,0.00,Wunderground v.1.15,2013-07-01 04:58:00,